Location: Unspecified
(0.0000°N, 0.0000°E)
Time: 15:40:06
(UTC+00:00)

Vanguard 3 - Pass Details

Date: 17 December 2017
Orbit: 508 x 3264 km, 33.3° (Epoch: 20 April)

Event Time Altitude Azimuth Distance (km) Brightness Sun altitude
Rises 02:43:07 0° 224° (SW) 6,990 11.8 -43.2°
Reaches altitude 10° 02:49:47 10° 210° (SSW) 6,160 11.6 -41.8°
Maximum altitude 03:03:43 22° 165° (SSE) 5,080 11.4 -38.8°
Drops below altitude 10° 03:16:02 10° 120° (ESE) 5,470 12.1 -36.2°
Sets 03:21:18 0° 105° (ESE) 6,072 12.6 -35.0°
